Location: Blackrock Ranger Station
(36.0936°N, 118.2611°W)
Time: 08:16:27
(UTC-07:00)

AO-7 - Pass Details

Date: 21 February 2026
Orbit: 1440 x 1458 km, 102.0° (Epoch: 15 March)

Event Time Altitude Azimuth Distance (km) Brightness Sun altitude
Rises 19:24:44 0° 218° (SW) 4,515 ? -21.7°
Reaches altitude 10° 19:29:49 10° 246° (WSW) 3,545 ? -22.8°
Maximum altitude 19:33:01 13° 269° (W) 3,347 ? -23.4°
Drops below altitude 10° 19:36:14 10° 293° (WNW) 3,556 ? -24.1°
Sets 19:41:26 0° 320° (NW) 4,544 ? -25.1°
